#timestamp,LO_Frequency,Hit,StdDev 
1506682815.4,286047001.1,N
1506682835.3,286047002.2,N
1506682855.1,286046996.8,N
1506682856.0,286046996.8,N
1506682875.8,286046997.0,N
1506682895.6,286046996.1,N
1506682915.5,286046995.9,N
1506682935.3,286046989.3,Y
1506682955.1,286046994.5,P
1506682975.9,286046993.6,P
1506682995.7,286046998.0,N
1506683015.6,286046993.8,Y
1506683035.4,286047002.6,P
1506683055.2,286046999.6,N
1506683075.0,286046996.6,N
1506683076.0,286046996.6,N
1506683095.8,286047002.0,N
1506683115.6,286047003.3,N
1506683135.5,286047010.5,Y
1506683155.3,286047009.2,P
1506683175.1,286047003.5,N
1506683195.8,286047004.6,N
1506683215.7,286047003.4,N
1506683235.5,286047003.0,N
1506683255.3,286047003.2,N
1506683275.2,286047003.1,N
1506683295.9,286047005.8,N
1506683315.7,286047004.5,N
1506683335.6,286047003.1,N
1506683355.4,286046998.2,N
1506683375.2,286047000.2,N
1506683395.1,286047002.3,N
1506683396.0,286047002.3,N
1506683415.8,286046997.1,N
1506683435.6,286046998.7,N
1506683455.5,286047001.2,N
1506683475.3,286046999.9,N
1506683495.1,286047001.8,N
1506683515.8,286047001.2,N
1506683535.7,286047002.1,N
1506683555.5,286047002.3,N
1506683575.3,286047004.8,N
1506683595.2,286047006.9,N
1506683615.0,286047000.3,N
1506683615.9,286047000.3,N
1506683635.7,286047003.5,N
1506683655.6,286047000.7,N
1506683675.4,286047002.4,N
1506683695.2,286046999.3,N
1506683715.1,286046999.5,N
1506683716.0,286046999.5,N
1506683735.8,286046995.8,N
1506683755.6,286046996.1,N
1506683775.5,286046993.8,N
1506683795.3,286046992.4,N
1506683815.1,286046996.0,N
1506683835.9,286046994.6,N
1506683855.7,286046994.8,N
1506683875.5,286046996.4,N
1506683895.3,286046993.0,N
1506683915.2,286046994.6,N
1506683935.0,286046991.1,N
1506683935.9,286046991.1,N
1506683955.7,286046994.7,N
1506683975.6,286046992.3,N
1506683995.4,286046997.8,N
1506684015.2,286046996.0,N
1506684035.1,286046993.5,N
1506684036.0,286046993.5,N
1506684055.8,286046992.1,N
1506684075.6,286046990.4,N
1506684095.5,286046995.8,N
1506684115.3,286046992.7,N
1506684135.1,286046991.9,N
1506684155.9,286046993.6,N
1506684175.7,286046995.5,N
1506684195.5,286046995.8,N
1506684215.4,286046995.2,N
1506684235.2,286046997.9,N
1506684255.0,286046999.4,N
1506684255.9,286046999.4,N
1506684275.8,286046996.7,N
1506684295.6,286046996.4,N
1506684315.4,286046990.5,Y
1506684335.3,286046994.0,P
1506684355.1,286046999.4,N
1506684356.0,286046999.4,N
1506684375.8,286047001.6,N
1506684395.7,286046999.9,N
1506684415.5,286047003.2,N
1506684435.3,286046999.7,N
1506684455.2,286046997.7,N
1506684475.9,286046998.0,N
1506684495.7,286046996.6,N
1506684515.5,286047001.1,N
1506684535.4,286047001.0,N
1506684555.2,286047002.3,N
1506684575.0,286047003.7,N
1506684575.9,286047003.7,N
1506684595.8,286047002.4,N
1506684615.6,286047001.2,N
1506684635.4,286047000.4,N
1506684655.3,286047002.2,N
1506684675.1,286047002.4,N
1506684676.0,286047002.4,N
1506684695.8,286047001.1,N
1506684715.7,286046997.4,N
1506684735.5,286046996.9,N
1506684755.3,286046999.8,N
1506684775.2,286047001.1,N
1506684795.9,286046998.0,N
1506684815.7,286046994.3,N
1506684835.5,286046994.8,N
1506684855.4,286046994.1,N
1506684875.2,286046997.0,N
1506684895.0,286046998.8,N
1506684895.9,286046998.8,N
1506684915.8,286047002.6,N
1506684935.6,286046998.0,N
1506684955.4,286046996.4,N
1506684975.3,286046996.0,N
1506684995.1,286046997.6,N
1506685015.8,286046995.7,N
1506685035.7,286046992.1,N
1506685055.5,286046992.6,N
1506685075.3,286046996.5,N
1506685095.2,286046997.7,N
1506685115.9,286046993.7,N
1506685135.7,286046996.2,N
1506685155.6,286046995.1,N
1506685175.4,286046994.1,N
1506685195.2,286046999.6,N
1506685215.0,286046994.3,N
1506685216.0,286046994.3,N
1506685235.8,286046995.5,N
1506685255.6,286046995.3,N
1506685275.4,286046996.3,N
1506685295.3,286046999.5,N
1506685315.1,286046999.9,N
1506685335.8,286047001.7,N
1506685355.7,286046998.3,N
1506685375.5,286046999.5,N
1506685395.3,286047001.2,N
1506685415.2,286046991.8,Y
1506685435.0,286046995.9,P
1506685435.9,286046995.9,P
1506685455.7,286046997.8,P
1506685475.6,286046995.2,Y
1506685495.4,286046998.9,P
1506685515.2,286046999.1,N
1506685535.1,286046999.6,N
1506685536.0,286046999.6,N
1506685555.8,286047001.7,N
1506685575.6,286047003.9,N
1506685595.5,286047003.1,N
1506685615.3,286047003.5,N
1506685635.1,286047003.0,N
1506685655.9,286047003.6,N
1506685675.7,286047001.8,N
1506685695.5,286047002.0,N
1506685715.4,286047002.0,N
1506685735.2,286047001.8,N
1506685755.0,286047002.0,N
1506685755.9,286047002.0,N
1506685775.8,286046998.1,N
1506685795.6,286047002.7,N
1506685815.4,286047000.7,N
1506685835.2,286046997.7,N
1506685855.1,286046999.6,N
1506685856.0,286046999.6,N
1506685875.8,286046997.9,N
1506685895.6,286046995.2,N
1506685915.5,286046998.9,N
1506685935.3,286047001.9,N
1506685955.1,286047003.5,N
1506685975.9,286047004.6,N
1506685995.7,286047005.4,N
1506686015.5,286047003.6,N
1506686035.4,286047001.6,N
1506686055.2,286047001.7,N
1506686075.0,286047004.2,N
1506686075.9,286047004.2,N
1506686095.8,286047003.6,N
1506686115.6,286047004.7,N
1506686135.4,286047005.6,N
1506686155.2,286047001.7,N
1506686175.1,286047002.4,N
1506686176.0,286047002.4,N
1506686195.8,286047001.5,N
1506686215.6,286046998.4,N
1506686235.5,286046995.9,N
1506686255.3,286046994.6,N
1506686275.1,286046993.6,N
1506686295.9,286046996.6,N
1506686315.7,286046998.9,N
1506686335.5,286047002.6,N
1506686355.4,286047004.2,N
1506686375.2,286047000.0,N
1506686395.0,286047000.0,N
1506686395.9,286047000.0,N
